When you browse on this site, cookies collect data to enhance your experience and personalize the content and advertising you see.
Visit our Privacy Policy to learn more. By continuing to use the site, you agree to this use of cookies and data.
  • In Switzerland
  • List of Countries
  • For 7 days
  • Water Temperature
  • Satellite Maps
  • Weather Map
  • Weather Widgets
  • user-avatar
    Login

    Hourly Weather Meshhed

    Today, 11 December, Tuesday

    Time Temperature Precipitation Wind Pressure Humidity
    00:00 +1°C° 0 mm 1 mps 612 mmHg 73%
    01:00 +1°C° 0 mm 1 mps 611 mmHg 75%
    02:00 +1°C° 0 mm 1 mps 611 mmHg 76%
    03:00 0°C° 0 mm 0 mps 611 mmHg 77%
    04:00 0°C° 0 mm 0 mps 610 mmHg 80%
    05:00 -1°C° 0 mm 0 mps 611 mmHg 81%
    06:00 -1°C° 0 mm 0 mps 611 mmHg 81%
    07:00 -1°C° 0 mm 0 mps 611 mmHg 82%
    08:00 0°C° 0 mm 0 mps 612 mmHg 75%
    09:00 +2°C° 0 mm 0 mps 612 mmHg 68%
    10:00 +4°C° 0 mm 1 mps 613 mmHg 59%
    11:00 +5°C° 0 mm 1 mps 613 mmHg 56%
    12:00 +6°C° 0 mm 1 mps 613 mmHg 53%
    13:00 +6°C° 0 mm 1 mps 613 mmHg 49%
    14:00 +6°C° 0 mm 1 mps 613 mmHg 49%
    15:00 +6°C° 0 mm 1 mps 613 mmHg 49%
    16:00 +6°C° 0 mm 1 mps 613 mmHg 49%
    17:00 +5°C° 0 mm 1 mps 613 mmHg 53%
    18:00 +5°C° 0 mm 1 mps 613 mmHg 57%
    19:00 +4°C° 0 mm 1 mps 613 mmHg 61%
    20:00 +4°C° 0 mm 1 mps 612 mmHg 62%
    21:00 +3°C° 0 mm 1 mps 612 mmHg 64%
    22:00 +3°C° 0 mm 1 mps 612 mmHg 66%
    23:00 +3°C° 0 mm 1 mps 612 mmHg 67%

    Tomorrow, 12 December, Wednesday

    Time Temperature Precipitation Wind Pressure Humidity
    00:00 +2°C° 0 mm 1 mps 612 mmHg 68%
    01:00 +2°C° 0 mm 1 mps 612 mmHg 69%
    02:00 +1°C° 0 mm 2 mps 611 mmHg 70%
    03:00 +1°C° 0 mm 2 mps 611 mmHg 70%
    04:00 +1°C° 0 mm 2 mps 611 mmHg 71%
    05:00 +1°C° 0 mm 2 mps 611 mmHg 71%
    06:00 -1°C° 0 mm 2 mps 611 mmHg 72%
    07:00 -1°C° 0 mm 2 mps 611 mmHg 72%
    08:00 +1°C° 0 mm 3 mps 612 mmHg 64%
    09:00 +3°C° 0 mm 3 mps 613 mmHg 56%
    10:00 +4°C° 0 mm 3 mps 614 mmHg 49%
    11:00 +5°C° 0 mm 4 mps 614 mmHg 45%
    12:00 +6°C° 0 mm 4 mps 614 mmHg 40%
    13:00 +7°C° 0 mm 4 mps 614 mmHg 36%
    14:00 +7°C° 0 mm 4 mps 614 mmHg 37%
    15:00 +7°C° 0 mm 4 mps 613 mmHg 38%
    16:00 +6°C° 0 mm 4 mps 613 mmHg 39%
    17:00 +5°C° 0 mm 3 mps 613 mmHg 43%
    18:00 +4°C° 0 mm 3 mps 613 mmHg 47%
    19:00 +3°C° 0 mm 3 mps 613 mmHg 50%
    20:00 +3°C° 0 mm 3 mps 613 mmHg 51%
    21:00 +3°C° 0 mm 3 mps 612 mmHg 51%
    22:00 +3°C° 0 mm 3 mps 612 mmHg 52%
    23:00 +2°C° 0 mm 3 mps 612 mmHg 51%

    Day after tomorrow, 13 December, Thursday

    Time Temperature Precipitation Wind Pressure Humidity
    00:00 +2°C° 0 mm 3 mps 612 mmHg 51%
    01:00 +2°C° 0 mm 3 mps 612 mmHg 51%
    02:00 +2°C° 0 mm 3 mps 612 mmHg 50%
    03:00 +2°C° 0 mm 3 mps 612 mmHg 49%
    04:00 +1°C° 0 mm 4 mps 611 mmHg 48%
    05:00 0°C° 0 mm 4 mps 612 mmHg 46%
    06:00 0°C° 0 mm 4 mps 612 mmHg 44%
    07:00 0°C° 0 mm 4 mps 612 mmHg 42%
    08:00 +3°C° 0 mm 4 mps 613 mmHg 37%
    09:00 +5°C° 0 mm 4 mps 613 mmHg 31%
    10:00 +7°C° 0 mm 4 mps 614 mmHg 26%
    11:00 +8°C° 0 mm 4 mps 614 mmHg 24%
    12:00 +9°C° 0 mm 5 mps 614 mmHg 21%
    13:00 +10°C° 0 mm 5 mps 614 mmHg 19%
    14:00 +9°C° 0 mm 5 mps 614 mmHg 20%
    15:00 +9°C° 0 mm 5 mps 614 mmHg 22%
    16:00 +8°C° 0 mm 4 mps 613 mmHg 23%
    17:00 +7°C° 0 mm 4 mps 613 mmHg 25%
    18:00 +6°C° 0 mm 4 mps 613 mmHg 28%
    19:00 +5°C° 0 mm 4 mps 613 mmHg 30%
    20:00 +4°C° 0 mm 4 mps 613 mmHg 31%
    21:00 +4°C° 0 mm 4 mps 613 mmHg 31%
    22:00 +3°C° 0 mm 3 mps 613 mmHg 31%
    23:00 +3°C° 0 mm 3 mps 613 mmHg 31%

    14 December, Friday

    Time Temperature Precipitation Wind Pressure Humidity
    00:00 +3°C° 0 mm 3 mps 613 mmHg 31%
    01:00 +3°C° 0 mm 3 mps 613 mmHg 31%
    02:00 +2°C° 0 mm 3 mps 613 mmHg 31%
    03:00 +2°C° 0 mm 3 mps 613 mmHg 31%
    04:00 +3°C° 0 mm 2 mps 612 mmHg 31%
    05:00 +2°C° 0 mm 2 mps 613 mmHg 31%
    06:00 +2°C° 0 mm 2 mps 613 mmHg 31%
    07:00 +3°C° 0 mm 1 mps 613 mmHg 32%
    08:00 +5°C° 0 mm 1 mps 614 mmHg 28%
    09:00 +7°C° 0 mm 1 mps 616 mmHg 25%
    10:00 +8°C° 0 mm 1 mps 617 mmHg 21%
    11:00 +9°C° 0 mm 1 mps 617 mmHg 20%
    12:00 +10°C° 0 mm 1 mps 617 mmHg 19%
    13:00 +9°C° 0 mm 2 mps 617 mmHg 18%
    14:00 +9°C° 0 mm 2 mps 617 mmHg 20%
    15:00 +8°C° 0 mm 3 mps 617 mmHg 22%
    16:00 +8°C° 0 mm 3 mps 617 mmHg 24%
    17:00 +7°C° 0 mm 3 mps 617 mmHg 30%
    18:00 +4°C° 0 mm 3 mps 617 mmHg 35%
    19:00 +3°C° 0 mm 3 mps 616 mmHg 40%
    20:00 +3°C° 0 mm 3 mps 616 mmHg 45%
    21:00 +2°C° 0 mm 3 mps 616 mmHg 49%
    22:00 +2°C° 0 mm 2 mps 616 mmHg 53%
    23:00 +2°C° 0 mm 2 mps 615 mmHg 54%

    15 December, Saturday

    Time Temperature Precipitation Wind Pressure Humidity
    00:00 +2°C° 0 mm 2 mps 615 mmHg 55%
    01:00 +1°C° 0 mm 2 mps 615 mmHg 57%
    02:00 +1°C° 0 mm 2 mps 614 mmHg 55%
    03:00 +2°C° 0 mm 1 mps 614 mmHg 54%
    04:00 +2°C° 0 mm 1 mps 613 mmHg 53%
    05:00 +2°C° 0 mm 1 mps 613 mmHg 51%
    06:00 +2°C° 0 mm 1 mps 613 mmHg 49%
    07:00 +2°C° 0 mm 1 mps 613 mmHg 47%
    08:00 +4°C° 0 mm 1 mps 614 mmHg 40%
    09:00 +6°C° 0 mm 1 mps 615 mmHg 33%
    10:00 +7°C° 0 mm 2 mps 616 mmHg 26%
    11:00 +7°C° 0 mm 2 mps 616 mmHg 24%
    12:00 +8°C° 0 mm 3 mps 616 mmHg 21%
    13:00 +9°C° 0 mm 3 mps 616 mmHg 19%
    14:00 +9°C° 0 mm 3 mps 616 mmHg 20%
    15:00 +8°C° 0 mm 2 mps 616 mmHg 21%
    16:00 +8°C° 0 mm 2 mps 616 mmHg 23%
    17:00 +7°C° 0 mm 2 mps 616 mmHg 26%
    18:00 +6°C° 0 mm 2 mps 616 mmHg 30%
    19:00 +5°C° 0 mm 1 mps 616 mmHg 33%
    20:00 +5°C° 0 mm 1 mps 616 mmHg 36%
    21:00 +4°C° 0 mm 1 mps 616 mmHg 39%
    22:00 +3°C° 0 mm 1 mps 616 mmHg 42%
    23:00 +3°C° 0 mm 1 mps 616 mmHg 45%

    16 December, Sunday

    Time Temperature Precipitation Wind Pressure Humidity
    00:00 +3°C° 0 mm 1 mps 616 mmHg 48%
    01:00 +2°C° 0 mm 1 mps 616 mmHg 51%
    02:00 +2°C° 0 mm 1 mps 616 mmHg 54%
    03:00 +1°C° 0 mm 1 mps 616 mmHg 57%
    04:00 +1°C° 0 mm 1 mps 616 mmHg 60%
    05:00 +1°C° 0 mm 1 mps 616 mmHg 64%
    06:00 -2°C° 0 mm 2 mps 616 mmHg 68%
    07:00 -2°C° 0 mm 2 mps 617 mmHg 71%
    08:00 -1°C° 0 mm 2 mps 617 mmHg 69%
    09:00 +1°C° 0 mm 2 mps 618 mmHg 67%
    10:00 +2°C° 0 mm 2 mps 619 mmHg 65%
    11:00 +3°C° 0 mm 2 mps 619 mmHg 61%
    12:00 +3°C° 0 mm 2 mps 618 mmHg 57%
    13:00 +4°C° 0 mm 2 mps 618 mmHg 53%
    14:00 +4°C° 0 mm 2 mps 618 mmHg 54%
    15:00 +3°C° 0 mm 3 mps 618 mmHg 55%
    16:00 +3°C° 0 mm 3 mps 618 mmHg 56%
    17:00 +2°C° 0 mm 3 mps 618 mmHg 62%
    18:00 +1°C° 0 mm 3 mps 618 mmHg 68%
    19:00 +1°C° 0 mm 2 mps 618 mmHg 75%
    20:00 +1°C° 0 mm 2 mps 618 mmHg 77%
    21:00 +1°C° 0 mm 2 mps 617 mmHg 79%
    22:00 -1°C° 0 mm 2 mps 617 mmHg 81%
    23:00 -1°C° 0 mm 2 mps 617 mmHg 81%
    Show more